This demonstration page uses our WeatherBlox Daily Observations layout. Learn more.

Left ArrowRight Arrow

47.50024, -111.30081

Hourly Observations for March 8, 2017

Temp ( °F °C ) Dew Point ( °F °C ) Humidity (%) Winds ( mph kmh ) Pressure ( in mb ) Visibility ( mi km ) Precip ( " mm )
12:05 am 00:05 Cloudy with Light Snow 25 -3.9 22 -5.6 88 88 E 17 28 30.06 1018 2 2 0.01 0.25
12:23 am 00:23 Cloudy with Light Snow 24 -4.4 22 -5.6 91 91 ENE 13 20 30.03 1017 3 5 0.01 0.25
12:40 am 00:40 Cloudy with Light Snow 25 -4 21 -6 86 86 ENE 13 20 30.03 1017 2 3 0.00 0.00
12:53 am 00:53 Cloudy with Light Snow 24 -4.4 22 -5.6 91 91 E 12 19 29.97 1015 2 3 0.01 0.25
1:38 am 01:38 Cloudy with Mist and Fog 23 -5 21 -6 93 93 ENE 15 24 30.00 1016 6 10 0.00 0.00
1:53 am 01:53 Cloudy 23 -5 21 -6.1 92 92 ENE 10 17 29.96 1014 8 13 0.00 0.03
2:53 am 02:53 Cloudy 22 -5.6 20 -6.7 92 92 ENE 9 15 29.91 1013 10 16 0.00 0.00
3:53 am 03:53 Mostly Cloudy 21 -6.1 19 -7.2 92 92 E 3 6 29.90 1013 10 16 0.00 0.00
4:53 am 04:53 Clear 19 -7.2 16 -8.9 88 88 Calm 29.90 1013 9 14 0.00 0.00
5:53 am 05:53 Mostly Clear 17 -8.3 15 -9.4 92 92 WNW 6 9 29.95 1014 10 16 0.00 0.00
6:03 am 06:03 Mostly Clear with Mist and Fog 14 -10 12 -11 92 92 W 6 9 30.06 1018 2 3 0.00 0.00
6:12 am 06:12 Mostly Cloudy with Mist and Fog 14 -10 12 -11 92 92 W 5 7 30.06 1018 2 2 0.00 0.00
6:16 am 06:16 Mostly Cloudy with Mist and Fog 16 -9 12 -11 86 86 W 3 6 30.03 1017 1 1 0.00 0.00
6:53 am 06:53 Sunny with Freezing Fog 16 -8.9 13 -10.6 88 88 NW 6 9 29.97 1015 1 1 0.00 0.00
7:07 am 07:07 Mostly Cloudy with Mist and Fog 17 -8.3 15 -9.4 92 92 WNW 3 6 30.03 1017 4 6 0.00 0.00
7:17 am 07:17 Mostly Cloudy 18 -7.8 16 -8.9 92 92 WNW 3 6 30.03 1017 7 11 0.00 0.00
7:19 am 07:19 Partly Cloudy 18 -7.8 15 -9.4 88 88 NW 5 7 30.03 1017 7 11 0.00 0.00
7:53 am 07:53 Sunny 20 -6.7 17 -8.3 89 89 Calm 29.98 1015 9 14 0.00 0.00
8:53 am 08:53 Cloudy 22 -5.6 19 -7.2 89 89 N 5 7 30.00 1016 10 16 0.00 0.00
9:53 am 09:53 Cloudy 24 -4.4 21 -6.1 88 88 SSE 8 13 30.00 1016 9 14 0.00 0.03
10:53 am 10:53 Sunny 29 -1.7 23 -5 78 78 E 5 7 30.01 1016 10 16 0.00 0.00
11:53 am 11:53 Sunny 34 1.1 26 -3.3 73 73 NNE 6 9 29.98 1015 10 16 0.00 0.00
12:53 pm 12:53 Partly Cloudy 39 3.9 27 -2.8 62 62 VRB 3 6 29.96 1015 10 16 0.00 0.00
1:53 pm 13:53 Mostly Sunny 45 7.2 20 -6.7 37 37 W 33 54 29.94 1014 10 16 0.00 0.00
2:53 pm 14:53 Sunny 45 7.2 17 -8.3 33 33 W 35 56 29.95 1014 10 16 0.00 0.00
3:53 pm 15:53 Sunny 43 6.1 17 -8.3 35 35 W 29 46 29.98 1015 10 16 0.00 0.00
4:53 pm 16:53 Sunny 42 5.6 18 -7.8 38 38 W 24 39 30.01 1016 10 16 0.00 0.00
5:53 pm 17:53 Sunny 36 2.2 23 -5 59 59 N 15 24 30.06 1018 10 16 0.00 0.00
6:00 pm 18:00 Sunny 34 1 25 -4 70 70 N 14 22 30.03 1017 10 16 0.00 0.00
6:53 pm 18:53 Partly Cloudy 28 -2.2 23 -5 81 81 N 14 22 30.14 1021 10 16 0.00 0.00
7:28 pm 19:28 Cloudy 23 -5 19 -7 86 86 N 17 28 30.18 1022 10 16 0.00 0.00
7:53 pm 19:53 Cloudy 22 -5.6 18 -7.8 85 85 NNW 16 26 30.20 1023 10 16 0.00 0.00
8:26 pm 20:26 Cloudy 20 -6.7 16 -8.9 85 85 N 17 28 30.24 1024 10 16 0.00 0.00
8:53 pm 20:53 Cloudy 19 -7.2 15 -9.4 84 84 N 15 24 30.23 1024 10 16 0.00 0.00
9:11 pm 21:11 Cloudy 19 -7.2 15 -9.4 84 84 N 15 24 30.30 1026 10 16 0.00 0.00
9:53 pm 21:53 Cloudy 17 -8.3 14 -10 88 88 NNW 12 19 30.27 1025 10 16 0.00 0.00
10:51 pm 22:51 Cloudy with Light Snow 16 -9 9 -13 73 73 NNW 15 24 30.39 1029 9 14 0.00 0.03
10:53 pm 22:53 Cloudy with Light Snow 15 -9.4 9 -12.8 77 77 NNW 14 22 30.29 1026 8 13 0.00 0.03
11:07 pm 23:07 Cloudy with Light Snow 14 -10 9 -12.8 80 80 NNW 14 22 30.39 1029 2 2 0.00 0.03
11:24 pm 23:24 Cloudy with Light Snow 12 -11 9 -13 85 85 NNW 13 20 30.42 1030 1 2 0.00 0.00
11:53 pm 23:53 Cloudy with Light Snow 13 -10.6 8 -13.3 81 81 N 13 20 30.30 1026 1 2 0.02 0.51

Powered by AerisWeather